Weather History for KRVS - February, 2013

Change the Weather History Date:

Saturday, February 16, 2013

  Actual Average (KTUL) Record (KTUL)
Temperature  
Mean Temperature 36 °F 42 °F  
Max Temperature 46 °F 53 °F 78 °F (1976)
Min Temperature 26 °F 32 °F 3 °F (1920)
Degree Days  
Heating Degree Days 29 23  
Month to date heating degree days 391  
Since 1 July heating degree days 2664  
Moisture  
Dew Point 15 °F    
Average Humidity 44    
Maximum Humidity 66    
Minimum Humidity 24    
Precipitation  
Precipitation 0.00 in 0.06 in 1.14 in (2008)
Month to date precipitation 0.95  
Year to date precipitation 2.61  
Sea Level Pressure  
Sea Level Pressure 30.30 in    
Wind  
Wind Speed 5 mph (SSW)    
Max Wind Speed 14 mph    
Max Gust Speed 21 mph    
Visibility 10 miles    
Events      
T = Trace of Precipitation, MM = Missing Value Source: NWS Daily Summary

Daily Weather History Graph

Daily Weather History Graph

Search for Another Location

Airport or City:

Trip Planner

Search our weather history database for the weather conditions in past years. The results will help you decide how hot, cold, wet, or windy it might be!

Date:

Astronomy

Feb. 16, 2013 Rise Set
Actual Time 7:09 AM CST 6:06 PM CST
Civil Twilight 6:43 AM CST 6:32 PM CST
Nautical Twilight 6:13 AM CST 7:02 PM CST
Astronomical Twilight 5:43 AM CST 7:32 PM CST
Moon 10:37 AM CST (2/16) No Moon Set
Length of Visible Light 11h 49m
Length of Day
10h 56m
Waxing Crescent, 39% of the Moon is Illuminated
Feb 16
Waxing Crescent
Feb 17
First Quarter
Feb 25
Full
Mar 4
Last Quarter
Mar 11
New

Hourly Weather History & Observations

Time (CST) Temp. Windchill Dew Point Humidity Pressure Visibility Wind Dir Wind Speed Gust Speed Precip Events Conditions
12:53 AM 35.1 °F 31.0 °F 21.9 °F 59% 30.38 in 10.0 mi Variable 4.6 mph - N/A   Overcast
1:53 AM 35.1 °F 26.9 °F 23.0 °F 61% 30.38 in 10.0 mi NNW 11.5 mph 20.7 mph 0.00 in   Scattered Clouds
2:53 AM 32.0 °F 28.7 °F 21.9 °F 66% 30.39 in 10.0 mi NW 3.5 mph - N/A   Partly Cloudy
3:53 AM 30.9 °F 25.2 °F 19.0 °F 61% 30.39 in 10.0 mi North 5.8 mph - N/A   Clear
4:53 AM 28.9 °F 25.2 °F 15.1 °F 56% 30.39 in 10.0 mi Variable 3.5 mph - N/A   Clear
5:53 AM 26.1 °F 21.9 °F 14.0 °F 60% 30.40 in 10.0 mi West 3.5 mph - N/A   Clear
6:53 AM 26.1 °F 21.9 °F 15.1 °F 63% 30.40 in 10.0 mi NW 3.5 mph - N/A   Clear
7:53 AM 27.0 °F - 15.1 °F 61% 30.42 in 10.0 mi Calm Calm - N/A   Clear
8:53 AM 30.0 °F 24.1 °F 15.1 °F 54% 30.43 in 10.0 mi NNW 5.8 mph - N/A   Clear
9:53 AM 35.1 °F 29.3 °F 12.0 °F 39% 30.43 in 10.0 mi Variable 6.9 mph - N/A   Clear
10:53 AM 35.1 °F - 10.0 °F 35% 30.42 in 10.0 mi Calm Calm - N/A   Clear
11:53 AM 39.9 °F - 10.9 °F 31% 30.38 in 10.0 mi Calm Calm - N/A   Partly Cloudy
12:53 PM 39.0 °F - 9.0 °F 29% 30.33 in 10.0 mi Calm Calm - N/A   Overcast
1:53 PM 42.1 °F 37.7 °F 8.1 °F 25% 30.28 in 10.0 mi SSW 6.9 mph - N/A   Overcast
2:53 PM 43.0 °F 37.7 °F 9.0 °F 25% 30.25 in 10.0 mi South 9.2 mph - N/A   Overcast
3:53 PM 46.0 °F 39.9 °F 10.9 °F 24% 30.22 in 10.0 mi South 13.8 mph 18.4 mph N/A   Partly Cloudy
4:53 PM 46.0 °F 39.9 °F 12.9 °F 26% 30.20 in 10.0 mi SSW 13.8 mph - N/A   Mostly Cloudy
5:53 PM 45.0 °F 41.8 °F 14.0 °F 29% 30.18 in 10.0 mi South 5.8 mph - N/A   Scattered Clouds
6:53 PM 43.0 °F 39.5 °F 15.1 °F 32% 30.17 in 10.0 mi SSE 5.8 mph - N/A   Scattered Clouds
7:53 PM 41.0 °F 38.0 °F 15.1 °F 35% 30.16 in 10.0 mi SSE 4.6 mph - N/A   Clear
8:53 PM 39.0 °F 36.8 °F 17.1 °F 41% 30.15 in 10.0 mi SSE 3.5 mph - N/A   Clear
9:53 PM 37.9 °F 34.4 °F 15.1 °F 39% 30.15 in 10.0 mi South 4.6 mph - N/A   Clear
10:53 PM 33.1 °F - 17.1 °F 52% 30.13 in 10.0 mi Calm Calm - N/A   Clear
11:53 PM 34.0 °F - 18.0 °F 52% 30.11 in 10.0 mi Calm Calm - N/A   Clear